Location: Bartlett
(35.2045°N, 89.8740°W)
Time: 17:28:25
(UTC+00:00)

Transit 4A - Pass Details

Date: 22 December 2025
Orbit: 867 x 974 km, 66.8° (Epoch: 14 January)

Event Time Altitude Azimuth Distance (km) Brightness Sun altitude
Rises 21:47:56 0° 188° (S) 3,442 11.6 10.1°
Reaches altitude 10° 21:50:29 10° 182° (S) 2,503 10.8 9.7°
Maximum altitude 21:55:57 45° 111° (ESE) 1,161 8.4 8.8°
Drops below altitude 10° 22:01:27 10° 40° (NE) 2,522 9.6 7.9°
Sets 22:04:01 0° 34° (NE) 3,471 10.3 7.4°
